Location: Presov
(49.0000°N, 21.2500°E)
Time: 03:21:23
(UTC+02:00)

Vanguard 2 Rocket - All Passes

Search period start: 21 April 2021 00:00
Search period end: 01 May 2021 00:00
Orbit: 553 x 3326 km, 32.9° (Epoch: 20 April)

Date Brightness Start Highest point End Pass type
(mag) Time Alt. Az. Time Alt. Az. Time Alt. Az.
21 Apr - 11:20:02 10° S 11:30:38 20° SE 11:42:45 10° E daylight
21 Apr - 13:28:54 10° SW 13:44:55 39° SSE 14:02:05 10° E daylight
21 Apr - 15:42:39 10° WSW 16:01:01 48° S 16:17:27 10° ESE daylight
21 Apr - 17:59:24 10° W 18:16:41 38° SSW 18:30:03 10° SE daylight
21 Apr - 20:19:57 10° W 20:29:58 18° SW 20:38:05 10° S visible
22 Apr - 10:24:34 10° SSE 10:30:30 13° SE 10:37:03 10° ESE daylight
22 Apr - 12:29:29 10° SSW 12:43:43 33° SSE 13:00:10 10° E daylight
22 Apr - 14:41:46 10° WSW 14:59:20 47° S 15:16:47 10° ESE daylight
22 Apr - 16:57:21 10° WSW 17:15:31 44° SSW 17:30:37 10° SE daylight
22 Apr - 19:15:57 10° W 19:29:55 26° SW 19:40:52 10° S daylight
23 Apr - 11:30:55 10° S 11:42:57 26° SE 11:57:30 10° E daylight
23 Apr - 13:41:28 10° SW 13:57:43 44° SSE 14:15:36 10° ESE daylight
23 Apr - 15:55:49 10° WSW 16:14:00 47° S 16:30:37 10° ESE daylight
23 Apr - 18:13:01 10° W 18:29:21 33° SSW 18:42:30 10° SSE daylight
23 Apr - 20:36:43 10° WSW 20:42:09 12° SW 20:47:03 10° SW visible
24 Apr - 10:33:28 10° S 10:42:40 19° SE 10:53:42 10° E daylight
24 Apr - 12:41:47 10° SW 12:56:23 39° SSE 13:13:52 10° E daylight
24 Apr - 14:54:50 10° WSW 15:12:18 48° S 15:30:03 10° ESE daylight
24 Apr - 17:10:48 10° W 17:28:19 39° SSW 17:43:21 10° SE daylight
24 Apr - 19:30:36 10° W 19:42:14 20° SW 19:51:58 10° S daylight
25 Apr - 09:39:06 10° SE 09:42:50 11° SE 09:46:53 10° ESE daylight
25 Apr - 11:42:44 10° SSW 11:55:26 32° SSE 12:11:31 10° E daylight
25 Apr - 13:54:24 10° WSW 14:10:38 47° S 14:28:57 10° ESE daylight
25 Apr - 16:09:10 10° WSW 16:26:55 44° SSW 16:43:32 10° SE daylight
25 Apr - 18:27:01 10° W 18:41:51 27° SW 18:54:21 10° SSE daylight
26 Apr - 10:44:30 10° S 10:54:59 25° SE 11:08:27 10° E daylight
26 Apr - 12:54:31 10° SW 13:09:11 43° SSE 13:27:18 10° ESE daylight
26 Apr - 15:08:07 10° WSW 15:25:17 47° S 15:43:07 10° ESE daylight
26 Apr - 17:24:29 10° W 17:41:00 34° SSW 17:55:37 10° SSE daylight
26 Apr - 19:46:57 10° WSW 19:54:24 14° SW 20:01:09 10° SSW daylight
27 Apr - 09:47:30 10° SSE 09:55:00 17° SE 10:04:16 10° E daylight
27 Apr - 11:55:11 10° SW 12:08:05 38° SSE 12:25:08 10° E daylight
27 Apr - 14:07:35 10° WSW 14:23:37 47° S 14:42:06 10° ESE daylight
27 Apr - 16:22:42 10° W 16:39:45 40° SSW 16:56:06 10° SE daylight
27 Apr - 18:41:41 10° W 18:54:11 21° SW 19:05:16 10° S daylight
28 Apr - 10:56:30 10° SSW 11:07:28 30° SSE 11:22:26 10° E daylight
28 Apr - 13:07:34 10° WSW 13:22:07 46° S 13:40:33 10° ESE daylight
28 Apr - 15:21:33 10° WSW 15:38:14 44° SSW 15:55:53 10° SE daylight
28 Apr - 17:38:33 10° W 17:53:31 28° SW 18:07:17 10° SSE daylight
29 Apr - 09:58:35 10° S 10:07:21 23° SE 10:19:06 10° E daylight
29 Apr - 12:08:02 10° SW 12:20:55 41° SSE 12:38:31 10° ESE daylight
29 Apr - 14:20:57 10° WSW 14:36:38 46° S 14:55:03 10° ESE daylight
29 Apr - 16:36:30 10° W 16:52:28 34° SSW 17:08:12 10° SSE daylight
29 Apr - 18:57:58 10° WSW 19:06:24 14° SW 19:14:20 10° SSW daylight
30 Apr - 09:02:07 10° SSE 09:07:43 14° SE 09:14:33 10° ESE daylight
30 Apr - 11:09:03 10° SW 11:20:10 35° SSE 11:36:01 10° E daylight
30 Apr - 13:20:50 10° WSW 13:35:08 46° S 13:53:37 10° ESE daylight
30 Apr - 15:35:11 10° W 15:51:07 39° SSW 16:08:19 10° SE daylight
30 Apr - 17:53:19 10° W 18:05:56 21° SW 18:17:58 10° S daylight
